sat.trackr.live / text

‹ back to catalog

STARLINK-35968

NORAD 66636 · 2025-271V

PAYLOAD ACTIVE UNKNOWN

§ Identity

Operator
Country
US
Launch date
2025-11-23
Launch site
AFWTR
Launch vehicle
Mass (kg)
RCS (m²)

Purposes: comms

External: N2YO · Heavens-Above · Gunter

§ Orbital elements

Epoch: 2026-09-20T20:53:14.705376Z

Period
93.85 min
Inclination
53.1583°
Eccentricity
0.0001572
Mean motion
15.34400447 rev/d
Perigee alt
461.6 km
Apogee alt
463.8 km
Semi-major
6,840.8 km
B*
3.9128e-4
RAAN
311.6502°
Arg perigee
56.0528°
Mean anomaly
304.0624°
Rev number
4,747

§ Raw data

STARLINK-359681 66636U 25271V   26263.87030909  .00012867  00000+0  39128-3 0  99982 66636  53.1583 311.6502 0001572  56.0528 304.0624 15.34400447 47476

JSON: /api/v1/satellites/66636 · /tle

For live sub-satellite position, see the globe view (requires WebGL).

§ Visibility from observer

Set your observer location to see the next 7 days of passes ≥ 10°. The values pass through the URL so the page stays shareable.

No JS? Fill the form by hand. The geolocation button needs JavaScript.